AISat 1
1 44104U 19018AC 19318.73022440 .00000893 00000-0 31438-4 0 9999
2 44104 97.4926 21.7471 0057112 258.1211 101.3622 15.30688537 34806
Raavana-1
1 44329U 98067QE 19318.44261773 .00008463 00000-0 13565-3 0 9992
2 44329 51.6406 333.7789 0006184 282.0408 77.9889 15.53973445 23378
Uguisu
1 44330U 98067QF 19317.48184653 .00008314 00000-0 13370-3 0 9997
2 44330 51.6406 338.6113 0006136 276.5168 83.5124 15.53908547 23201
NepaliSat-1
1 44331U 98067QG 19318.24635520 .00008355 00000-0 13387-3 0 9990
2 44331 51.6407 334.7188 0006241 282.6173 77.4120 15.54003571 23339
Prox-1
1 44339U 19036A 19318.52509639 .00000876 00000-0 15916-3 0 9999
2 44339 24.0015 30.2669 0010745 313.1609 46.7983 14.52734879 20697
OBJECT H
1 44346U 19036H 19318.40096278 .00012135 00000-0 18938-3 0 9992
2 44346 28.5233 356.7302 0382901 168.9925 191.9321 14.98313302 21312
OBJECT J
1 44347U 19036J 19318.41121592 .00031194 00000-0 47589-3 0 9992
2 44347 28.5262 352.9788 0359975 174.8453 185.5980 15.03775871 21352
OBJECT K
1 44348U 19036K 19317.43208311 .00009605 00000-0 14684-3 0 9991
2 44348 28.5178 2.4410 0383447 159.3981 202.2519 14.98470399 21178
Armadillo
1 44352U 19036P 19317.45088623 .00012932 00000-0 20166-3 0 9999
2 44352 28.5303 1.7777 0377681 160.2815 201.2810 14.99427409 21124
NO-104
1 44354U 19036R 19317.49503046 .00010064 00000-0 15214-3 0 9998
2 44354 28.5323 1.1083 0380866 160.9466 200.5802 14.99265470 21176
NO-103
1 44355U 19036S 19318.42036598 .00017145 00000-0 25965-3 0 9997
2 44355 28.5331 354.0100 0373548 172.5210 188.1149 15.01021572 21320
Oculus-ASR
1 44356U 19036T 19318.40687032 .00043228 00000-0 59832-3 0 9992
2 44356 28.5217 349.9037 0355460 179.0978 181.0306 15.06802888 21376
CP9
1 44360U 19036X 19317.44062790 .00027324 00000-0 37073-3 0 9990
2 44360 28.5141 357.4961 0371143 167.0783 193.9621 15.03982285 21081
Move-IIb
1 44398U 19038N 19318.42242271 .00001221 00000-0 74696-4 0 9997
2 44398 97.5073 277.8854 0026174 148.4125 211.8683 15.11839995 19939
SONATE
1 44400U 19038Q 19318.82034309 .00000397 00000-0 26912-4 0 9997
2 44400 97.5092 278.2907 0026197 145.4640 214.8299 15.11738389 19999
BeeSat 9
1 44412U 19038AC 19318.40987010 .00000749 00000-0 47240-4 0 9998
2 44412 97.5086 277.9120 0023566 152.0292 208.2210 15.11935071 19629
JAISAT-1
1 44419U 19038F 19318.10222220 .00000800 00000-0 49526-4 0 9994
2 44419 97.5087 277.7107 0022415 152.5279 207.7142 15.12422310 19897
LightSail-2
1 44420U 19036AC 19318.49907583 .00005949 00000-0 13430-2 0 9990
2 44420 24.0079 30.1266 0017723 314.8241 45.0814 14.53648913 18835
Taurus 1
1 44530U 19059C 19318.81398855 .00000612 00000-0 18705-3 0 9992
2 44530 98.5831 32.7574 0015749 86.5431 273.7580 14.45272404 9197
/EX
1
0
NO-83 (BRICSAT-P, CAT ID 40655) is nearing decay from orbit. Alan Biddle,
WA4SCA, has run the TLEs through the SATEVO software and a re-entry is
possible on November 9, 2019.
TLEs for NO-83 remain in this week's TLE distribution. More later.
1
0
SB KEPS @ AMSAT $ORB19311.N
2Line Orbital Elements 19311.AMSAT
HR AMSAT ORBITAL ELEMENTS FOR AMATEUR SATELLITES IN NASA FORMAT
FROM WA5QGD FORT WORTH,TX November 7, 2019
BID: ORB19311.N
DECODE 2-LINE ELSETS WITH THE FOLLOWING KEY:
1 AAAAAU 00 0 0 BBBBB.BBBBBBBB .CCCCCCCC 00000-0 00000-0 0 DDDZ
2 AAAAA EEE.EEEE FFF.FFFF GGGGGGG HHH.HHHH III.IIII JJ.JJJJJJJJKKKKKZ
KEY: A-CATALOGNUM B-EPOCHTIME C-DECAY D-ELSETNUM E-INCLINATION F-RAAN
G-ECCENTRICITY H-ARGPERIGEE I-MNANOM J-MNMOTION K-ORBITNUM Z-CHECKSUM
TO ALL RADIO AMATEURS BT
AO-07
1 07530U 74089B 19311.19625188 -.00000029 00000-0 10067-3 0 9997
2 07530 101.7655 277.5029 0012515 73.8409 356.8900 12.53640619 58257
UO-11
1 14781U 84021B 19311.51727349 .00000081 00000-0 16062-4 0 9997
2 14781 97.6029 329.4641 0007794 204.7140 155.3702 14.83118124919780
LO-19
1 20442U 90005G 19311.06861037 .00000014 00000-0 21335-4 0 9995
2 20442 98.6629 252.9140 0012898 92.3878 267.8783 14.32937174556628
HUBBLE
1 20580U 90037B 19311.18684250 .00000473 00000-0 17843-4 0 9994
2 20580 28.4706 356.2642 0002552 203.1438 197.4940 15.09294430422286
MET-2/21
1 22782U 93055A 19310.76192872 .00000058 00000-0 39139-4 0 9991
2 22782 82.5519 51.1132 0023230 140.3941 23.4994 13.83823802322374
AO-27
1 22825U 93061C 19310.97205818 -.00000002 00000-0 17282-4 0 9999
2 22825 98.9149 302.9116 0007639 312.8267 47.2272 14.30070322362149
IO-26
1 22826U 93061D 19311.22058524 .00000006 00000-0 20157-4 0 9997
2 22826 98.9090 303.1398 0008022 299.1327 60.9051 14.30404669362389
FO-29
1 24278U 96046B 19310.63487393 -.00000018 00000-0 20314-4 0 9999
2 24278 98.5597 85.0685 0349556 234.5564 122.2478 13.53094526146860
NOAA-15
1 25338U 98030A 19311.57978682 .00000032 00000-0 31989-4 0 9997
2 25338 98.7385 332.5340 0010336 185.0915 175.0161 14.25938062117465
GO-32
1 25397U 98043D 19310.46216367 -.00000005 00000-0 17182-4 0 9998
2 25397 98.7016 248.9712 0001585 33.0414 327.0863 14.23673703107908
ISS
1 25544U 98067A 19311.65034873 .00000782 00000-0 21538-4 0 9991
2 25544 51.6451 9.9487 0005806 239.8014 220.3094 15.50259288197515
NO-44
1 26931U 01043C 19311.42607578 -.00000011 00000-0 27517-4 0 9992
2 26931 67.0525 357.9347 0007478 266.3036 93.7210 14.30557746945246
SO-50
1 27607U 02058C 19311.53344879 -.00000012 00000-0 19187-4 0 9999
2 27607 64.5553 335.9300 0073227 228.8529 130.6241 14.75586564907961
CO-55
1 27844U 03031E 19310.71225181 .00000056 00000-0 44918-4 0 9994
2 27844 98.6850 316.8222 0009597 349.3739 10.7235 14.22203614848334
CO-57
1 27848U 03031J 19311.02615507 .00000047 00000-0 41093-4 0 9999
2 27848 98.6924 317.6594 0009692 0.5433 359.5753 14.21795531848224
RS-22
1 27939U 03042A 19311.73382864 .00000115 00000-0 29214-4 0 9994
2 27939 98.0606 84.9545 0012396 344.2490 15.8333 14.66815443861362
NOAA-18
1 28654U 05018A 19311.66688164 .00000060 00000-0 57258-4 0 9996
2 28654 99.0788 0.6444 0015013 136.3065 223.9297 14.12464803745564
CO-58
1 28895U 05043F 19311.63211576 .00000116 00000-0 31097-4 0 9992
2 28895 97.9797 89.6744 0015515 262.9433 97.0005 14.63707751748243
Falconsat-3
1 30776U 07006E 19311.27852285 .00002819 00000-0 78019-4 0 9999
2 30776 35.4346 266.7237 0003327 298.1718 61.8673 15.36745109702476
CO-65
1 32785U 08021C 19311.60950670 .00000202 00000-0 27376-4 0 9997
2 32785 97.5576 304.6896 0013824 146.8651 213.3435 14.88369270624798
AAUSAT2
1 32788U 08021F 19311.49798501 .00000548 00000-0 55185-4 0 9992
2 32788 97.4943 320.9436 0013268 85.4060 274.8676 14.94845398626106
DO-64
1 32789U 08021G 19310.44288468 .00000761 00000-0 54446-4 0 9999
2 32789 97.4490 355.7604 0012217 11.5549 348.5958 15.07232135628166
CO-66
1 32791U 08021J 19311.52245802 .00000216 00000-0 27168-4 0 9993
2 32791 97.5323 310.7007 0014647 122.0448 238.2195 14.90904098625247
RS-30
1 32953U 08025A 19311.69859141 .00000020 00000-0 75656-4 0 9990
2 32953 82.5055 56.4414 0019787 177.0585 183.0618 12.43092046519955
PRISM
1 33493U 09002B 19311.52674959 .00000423 00000-0 42482-4 0 9998
2 33493 98.1243 237.8732 0016179 74.3707 285.9297 14.96789532586369
NOAA-19
1 33591U 09005A 19311.58551051 .00000015 00000-0 33726-4 0 9991
2 33591 99.1901 306.2102 0013747 344.7458 15.3296 14.12382404553933
TISAT-1
1 36799U 10035E 19310.73401239 .00000386 00000-0 44936-4 0 9993
2 36799 98.1727 107.7326 0011922 349.4500 10.6465 14.91195520505780
JUGNU
1 37839U 11058B 19310.79217073 .00000295 00000-0 15746-4 0 9998
2 37839 019.9599 199.1207 0018993 082.9843 328.4116 14.12663514417120
